Theta_e
311 312 313 312 317 323 321 320 322 321 320 316 316 318 319 322 321 321 321 322 322 324 327 326 324 323 324 329 336 338 341 345 346 343 342 350 352 351 351 349 348 346 345 343 339 337 334 330 328 326 324 321 321 324 329 335 337 338 339 340 340 340 339 337 336 334 334 333 332 329 322 315 314 314 314 315 318 321 321 318 310 316 325 318 310 311 311 312 311 310 309 308 308 308 309 311 312
316 316 313 313 318 323 322 321 319 319 317 313 316 319 319 322 320 320 321 321 322 323 323 323 322 324 326 332 338 338 344 349 348 349 349 351 351 351 350 348 347 345 344 344 339 334 331 328 326 324 321 320 320 324 331 336 337 338 339 340 340 340 339 337 336 335 334 334 333 331 326 319 316 314 314 315 319 326 325 316 309 323 332 321 314 314 311 313 312 311 309 308 308 308 309 309 311
321 318 315 317 321 323 323 321 316 315 315 313 316 320 321 321 320 320 320 321 322 322 321 322 322 327 330 335 339 340 347 350 348 349 350 351 352 350 349 348 346 344 344 343 338 333 330 326 323 321 320 319 320 325 332 335 337 337 338 339 340 340 339 337 336 335 334 334 333 332 329 323 319 314 314 315 320 328 324 315 317 329 332 323 319 318 315 316 314 315 314 313 310 308 308 309 310
319 319 318 319 321 322 322 319 316 315 313 313 315 320 321 320 320 320 321 321 321 321 322 322 325 334 337 341 342 342 348 349 348 349 350 351 351 350 349 347 346 345 343 342 339 334 329 324 321 320 320 320 322 326 331 334 336 337 338 339 339 340 338 337 336 335 335 334 333 332 329 324 321 317 316 317 319 324 322 322 327 330 328 324 324 322 320 318 317 318 317 316 312 308 308 308 309
317 319 320 321 321 321 321 320 319 315 314 315 316 319 321 320 320 320 321 321 321 322 323 322 328 338 343 348 348 346 348 348 349 349 351 351 350 350 348 347 346 345 342 341 340 334 327 324 321 321 320 321 324 327 330 333 335 336 337 338 339 339 337 337 335 335 335 334 332 330 327 324 322 319 319 319 318 320 323 329 332 331 331 330 329 328 327 322 320 321 319 317 313 310 308 308 308
318 320 319 321 324 323 321 318 317 316 317 320 319 320 320 320 321 320 322 322 322 322 322 323 330 339 346 350 350 351 351 349 349 349 351 351 350 349 348 347 345 344 342 342 342 332 324 324 321 321 319 320 323 325 329 333 334 336 337 338 339 338 336 336 336 335 335 332 330 327 325 322 320 319 318 318 320 323 327 331 334 334 335 334 333 333 332 328 324 322 320 318 315 312 310 308 308
319 320 318 320 322 321 319 316 317 317 319 321 320 320 320 320 321 321 322 323 323 323 322 326 334 340 345 348 348 350 351 350 349 349 351 350 350 348 347 346 345 344 342 342 342 330 323 325 322 320 319 318 319 322 326 330 333 335 336 337 338 337 336 336 336 335 333 330 327 326 325 325 323 318 320 323 323 325 329 332 334 336 335 334 334 334 333 329 326 323 320 319 317 315 312 310 308
320 320 319 318 320 319 317 317 318 319 320 320 320 320 320 320 321 320 322 324 323 324 324 328 336 339 342 346 349 350 350 349 349 350 351 350 349 348 346 346 344 344 343 342 339 328 325 327 322 321 321 320 318 318 321 326 330 334 336 337 337 337 337 336 336 334 331 327 327 329 330 333 330 322 324 331 330 328 329 331 334 335 333 333 333 332 331 329 326 323 320 319 317 316 314 312 310
320 322 321 317 320 319 316 317 318 321 320 319 320 319 320 320 320 321 322 324 325 325 325 328 334 338 343 347 350 350 350 349 349 350 350 349 348 347 347 346 344 344 343 342 336 326 327 326 323 324 324 322 319 318 318 320 324 329 333 335 336 337 337 336 335 332 330 330 332 335 337 338 333 324 324 332 335 331 328 331 333 333 332 333 334 333 331 329 327 324 321 320 319 316 315 314 312
320 321 321 318 318 318 316 317 318 320 320 319 320 320 320 320 321 322 323 325 327 326 325 325 328 338 345 348 350 350 350 349 349 350 350 348 348 347 347 345 345 344 342 342 333 325 329 326 325 327 326 324 321 320 317 316 319 323 327 330 333 335 337 335 332 331 332 334 336 338 338 335 330 324 323 327 333 331 328 332 333 331 333 334 334 333 331 328 327 326 324 323 321 319 317 316 314
320 319 319 318 316 315 314 316 318 319 319 318 319 320 320 320 321 323 325 327 328 327 324 324 327 338 347 348 351 351 349 349 350 350 349 348 348 347 347 345 344 343 343 341 330 326 329 326 327 328 327 327 325 324 322 318 316 318 322 326 328 333 335 332 332 332 333 336 336 335 335 332 328 328 326 325 329 331 329 332 334 334 334 334 333 331 328 327 327 327 326 326 324 322 320 318 316
320 319 318 317 316 316 316 316 318 319 319 318 319 320 319 320 322 322 327 329 328 326 323 326 329 341 347 348 350 350 349 349 349 349 349 348 347 347 346 345 344 343 342 340 333 330 329 327 327 327 328 328 328 328 327 324 319 317 319 323 326 330 332 331 332 333 333 335 335 335 335 332 331 333 332 328 327 328 330 331 332 333 332 331 330 328 327 328 328 328 328 328 327 324 322 321 318
320 320 319 316 317 318 318 317 318 319 318 319 319 319 320 321 321 322 328 330 329 325 322 329 336 343 346 348 350 350 350 349 350 348 348 348 347 347 346 345 344 343 342 340 338 333 329 329 326 327 329 328 329 329 329 328 323 319 319 324 327 329 331 331 332 333 333 334 335 336 334 332 331 333 334 331 326 325 329 331 331 331 329 327 327 327 327 328 328 328 328 329 329 327 325 323 319
319 320 319 317 319 318 317 317 317 317 316 320 320 319 320 320 322 323 329 330 329 331 331 337 343 345 346 348 348 349 350 349 349 348 348 348 347 346 345 345 344 343 341 340 341 336 333 331 327 330 330 329 330 330 330 329 325 322 322 327 330 330 330 329 331 331 332 334 334 334 333 331 330 331 333 332 328 325 327 329 329 328 326 325 324 324 327 328 328 328 328 329 329 328 327 324 320
318 319 319 317 318 317 317 317 317 317 317 320 319 319 320 320 322 324 332 332 333 338 339 342 344 345 345 346 348 350 350 349 349 348 348 347 346 346 344 345 344 343 341 341 341 339 337 333 330 331 331 332 332 331 332 330 326 323 322 327 330 332 330 330 331 328 330 333 333 332 332 331 330 331 331 331 331 330 329 328 326 324 323 324 322 322 327 328 327 327 327 328 329 328 327 325 322
318 318 318 317 315 316 317 318 318 317 318 320 319 320 320 321 322 326 334 336 338 339 339 343 345 345 343 343 347 350 350 349 349 348 348 347 346 345 344 344 344 343 341 341 341 339 338 335 333 330 332 335 333 333 334 332 327 322 320 321 324 328 329 330 330 328 330 333 333 332 330 329 330 332 331 331 332 333 332 330 327 323 320 322 322 322 326 328 327 327 326 328 328 329 328 325 323
317 317 318 316 315 316 317 319 317 316 318 320 319 320 319 321 322 326 332 336 340 338 339 346 345 345 344 342 346 349 350 349 349 348 348 347 346 345 344 344 343 343 341 342 341 339 338 337 334 330 333 336 334 334 335 335 330 323 321 319 320 323 324 326 327 328 331 331 332 331 327 328 331 332 332 331 331 332 331 330 329 326 321 319 321 323 324 327 327 326 326 327 327 328 328 326 324
317 316 316 315 316 317 318 319 317 318 319 318 319 320 319 320 321 324 330 336 341 339 342 347 345 346 345 344 347 349 350 350 349 348 348 347 346 345 345 344 344 343 342 342 341 341 339 338 335 330 333 338 336 335 336 336 332 325 324 324 325 326 325 325 325 327 330 330 330 329 328 329 333 332 332 331 330 329 329 330 331 329 325 318 319 323 324 325 326 326 327 328 328 328 328 327 325
317 317 316 316 318 318 319 318 318 318 318 318 320 319 319 320 321 323 327 333 338 339 343 346 345 345 346 346 348 349 350 350 349 348 348 347 346 345 345 344 344 344 343 343 342 341 340 340 338 333 335 338 337 336 335 336 333 328 326 326 329 330 329 327 325 326 328 328 327 329 330 331 332 331 331 332 329 329 330 332 331 328 324 319 317 318 323 324 324 327 329 329 329 328 329 328 327
317 317 316 317 319 319 319 318 318 318 317 319 319 319 319 320 321 322 324 328 333 337 342 344 344 344 346 348 348 350 350 350 350 349 348 347 345 345 345 345 344 344 343 343 343 341 341 341 340 338 338 339 338 338 336 335 333 330 327 326 328 331 331 329 326 326 328 328 327 329 332 332 332 332 332 332 330 330 332 332 330 326 321 318 316 316 320 324 325 328 330 330 329 329 332 331 330
317 317 317 318 319 318 318 318 318 317 317 318 319 319 319 320 321 322 323 324 328 336 340 340 342 343 345 348 349 349 349 350 350 349 348 347 346 345 345 345 344 344 344 344 343 342 342 341 341 341 340 338 339 339 338 337 334 334 332 330 330 332 332 332 331 329 330 331 330 329 331 333 333 333 332 332 331 331 332 331 329 327 324 320 319 320 319 322 326 328 330 331 328 329 332 332 332
317 317 318 319 319 318 318 318 318 317 317 318 318 318 319 320 321 322 322 321 323 332 337 338 341 341 343 347 348 348 349 349 349 349 348 347 346 346 345 345 345 344 344 343 343 343 343 342 341 341 339 337 338 338 339 338 336 337 336 334 334 335 335 337 335 332 331 332 332 329 331 333 332 332 331 330 331 332 332 331 329 327 325 321 323 325 320 317 323 327 330 331 329 329 331 332 330
316 317 318 318 318 318 318 318 317 317 317 318 319 318 319 319 320 321 321 320 322 327 332 334 339 342 342 346 348 348 348 348 349 348 348 347 346 345 345 344 344 344 343 342 343 343 343 341 340 341 339 338 338 338 339 339 337 338 337 335 335 336 337 337 335 333 333 333 333 331 331 332 332 332 331 330 331 332 333 332 331 326 323 321 323 327 323 316 323 329 330 331 331 331 332 332 329
316 316 318 319 318 318 317 317 317 317 318 318 318 318 318 319 319 320 321 321 320 324 326 328 338 343 343 344 346 348 348 348 348 348 347 347 346 345 344 344 343 343 342 342 343 343 342 341 340 340 339 338 339 338 338 339 338 337 337 336 334 335 335 334 334 333 333 335 334 332 331 332 332 332 331 331 332 333 333 334 332 329 327 325 321 324 325 321 325 330 331 330 330 331 332 332 331
316 315 318 319 318 318 317 317 317 317 318 318 318 317 318 318 318 319 320 320 321 325 325 329 339 342 342 342 345 348 347 347 347 347 347 346 345 345 344 344 343 343 342 343 344 344 342 341 340 340 339 339 340 338 337 338 338 337 337 337 335 336 335 333 333 333 333 335 335 333 332 332 332 332 331 331 332 333 333 333 331 329 329 326 322 326 329 327 327 331 332 329 327 329 332 332 332
317 316 317 318 317 318 317 317 317 318 318 317 317 317 318 318 318 319 319 321 323 326 327 334 340 340 342 343 345 347 347 347 347 347 346 345 346 345 345 344 344 344 343 343 344 344 342 340 341 341 339 339 338 338 337 337 338 338 337 335 335 335 335 334 334 333 333 334 334 333 332 332 332 332 331 331 333 333 332 329 326 325 325 323 322 328 331 329 329 331 330 327 327 330 331 331 332
318 318 318 317 318 318 318 318 318 318 318 317 317 316 318 318 318 319 320 323 324 327 331 337 341 341 344 344 344 347 347 347 347 347 346 346 346 345 345 345 344 344 344 343 343 342 340 339 341 341 339 338 338 338 336 335 338 338 336 332 333 335 333 332 333 334 333 332 332 332 331 332 333 332 332 333 332 331 328 325 323 322 322 320 321 325 326 325 328 329 327 327 330 331 331 331 332
318 318 318 317 318 318 318 318 318 317 317 317 317 316 318 317 318 318 321 324 324 327 333 337 340 343 344 343 344 346 347 347 346 347 346 346 346 345 345 344 344 344 344 343 342 341 340 339 340 339 339 339 338 338 335 336 338 337 335 332 333 335 333 333 333 332 331 331 331 331 331 331 331 331 333 332 328 326 324 322 322 322 322 323 323 323 324 326 329 329 329 330 331 331 331 331 331
317 317 316 316 317 316 317 317 317 317 317 318 317 315 316 316 318 319 321 324 323 327 334 337 339 342 341 342 345 346 346 346 347 347 346 347 346 346 345 344 344 344 344 343 342 341 340 340 338 335 337 338 338 337 335 336 337 336 336 334 334 333 333 334 333 331 330 330 331 331 330 330 328 330 331 329 326 324 323 322 324 325 326 328 328 325 324 328 331 332 333 333 332 331 332 332 331
316 316 315 315 315 315 317 318 317 317 317 318 316 313 314 317 318 318 320 322 323 325 332 337 338 340 339 342 345 344 345 346 347 347 345 346 346 346 345 344 343 342 343 343 343 341 338 339 336 332 335 338 338 335 334 335 336 336 335 335 334 332 332 333 332 332 331 329 330 330 328 328 328 329 329 328 327 326 325 326 327 328 328 330 330 327 326 330 333 333 333 332 332 332 332 332 331
315 316 315 315 314 314 318 318 317 317 316 317 316 312 313 318 318 318 320 321 323 323 329 334 336 338 337 341 344 343 345 346 346 346 345 346 345 345 344 344 342 341 343 342 342 341 337 337 335 332 336 338 338 335 333 334 335 335 335 335 334 332 331 332 332 331 330 329 329 329 328 328 327 327 327 327 327 327 327 327 329 329 328 329 330 329 329 332 333 332 332 332 332 331 332 332 330
316 314 314 315 313 314 318 318 317 316 316 317 315 312 314 318 319 320 321 321 323 323 326 334 334 335 336 340 343 343 344 344 346 346 346 346 345 344 343 343 341 341 342 342 341 340 338 337 336 335 337 338 337 335 334 334 335 335 335 335 334 332 331 331 331 330 330 329 329 329 329 328 327 328 328 327 327 327 327 327 328 327 327 328 330 329 331 333 333 332 333 332 331 330 331 331 330
316 314 313 315 314 314 317 317 318 317 317 317 315 314 314 318 319 321 321 320 323 322 323 332 333 333 334 337 340 342 343 342 345 345 345 346 345 344 343 342 341 340 341 342 341 340 338 337 337 337 338 338 337 336 334 333 335 334 334 334 333 333 331 330 331 330 330 329 330 330 328 328 328 328 329 328 327 327 327 329 328 327 327 329 331 330 331 333 333 334 333 332 330 330 330 330 330
316 315 314 315 316 315 315 316 318 317 316 316 316 315 316 318 319 320 321 320 322 323 322 327 332 334 335 337 338 340 342 342 343 343 344 346 345 344 343 343 342 340 341 341 341 340 338 337 337 338 338 338 338 336 334 333 335 334 333 333 333 332 331 331 331 330 331 329 329 329 327 329 328 328 328 327 327 326 328 330 328 327 328 329 331 331 332 332 333 333 332 330 329 329 330 330 330
315 315 314 314 316 316 315 316 317 317 316 316 316 316 316 317 318 319 320 320 321 322 323 324 329 334 336 335 335 338 341 343 343 342 344 345 344 344 344 344 343 342 342 342 341 340 338 337 337 338 338 337 337 336 334 333 334 335 334 334 333 332 330 331 330 329 330 329 328 328 327 328 328 328 328 327 326 327 328 329 326 326 328 329 329 331 331 331 332 332 331 329 327 328 330 330 329
316 317 316 315 315 315 316 317 317 317 316 316 316 316 316 316 318 318 319 320 321 321 322 324 327 331 333 333 334 337 339 341 342 342 344 344 344 343 343 344 344 343 343 343 341 340 339 338 337 337 337 337 336 335 334 333 334 334 334 334 333 331 330 330 329 328 329 328 328 328 327 327 328 329 328 327 327 327 326 326 325 326 328 329 329 331 331 331 333 332 330 330 327 327 330 329 329
317 317 317 316 315 315 318 318 317 317 316 316 317 316 317 317 317 318 319 320 320 321 322 323 325 328 330 332 333 335 337 339 339 341 344 344 343 344 343 344 344 343 343 342 341 340 340 339 337 337 337 337 336 335 335 334 334 334 334 334 333 331 330 329 329 329 328 329 329 329 328 326 327 328 327 327 327 326 324 324 325 327 329 330 330 331 331 331 332 331 330 331 329 329 329 329 330
318 317 315 315 314 315 317 318 317 317 316 316 317 316 316 317 317 318 319 319 319 321 321 322 324 324 326 330 332 334 336 335 334 339 343 344 343 344 344 343 342 341 342 341 341 341 339 338 338 337 337 336 335 336 336 335 334 334 334 334 333 331 330 330 330 330 329 329 330 329 328 326 326 327 326 325 324 324 323 322 325 327 329 331 330 329 329 330 330 329 331 331 330 330 328 328 330
318 316 315 313 315 316 316 318 318 317 316 315 316 316 316 318 318 318 319 319 320 319 320 320 321 322 324 327 330 333 336 333 331 337 343 344 343 343 343 342 341 341 341 341 341 340 339 338 338 337 336 336 336 336 336 335 335 334 334 333 332 331 330 330 330 331 330 329 328 329 327 326 328 327 326 324 323 323 322 323 325 326 329 331 329 328 328 328 328 329 331 331 330 330 329 328 328
317 316 314 313 315 315 314 316 318 317 316 316 317 316 317 318 317 318 319 318 319 319 319 319 319 321 322 324 327 330 336 335 331 336 343 343 342 343 342 341 341 341 341 341 340 340 339 338 337 336 335 336 336 335 335 335 335 334 333 332 331 330 330 330 330 331 330 329 329 328 326 326 328 326 327 326 323 323 323 325 328 328 330 331 329 328 329 329 329 329 331 331 331 329 328 328 327
316 316 315 314 315 315 314 317 318 317 317 318 317 315 315 316 317 317 318 318 318 318 319 319 318 320 320 321 324 325 332 336 335 338 343 343 342 342 342 341 341 340 341 341 340 340 339 338 337 335 335 336 336 334 334 334 334 333 332 331 330 330 331 331 330 331 331 330 330 330 327 327 327 325 327 328 326 326 326 327 329 330 331 331 328 329 329 328 329 330 330 331 331 330 328 328 328
315 317 316 315 316 316 316 317 316 315 314 317 316 312 312 315 316 317 318 318 318 318 319 319 318 318 319 319 322 322 326 335 336 335 340 342 341 341 341 341 340 341 341 340 339 339 338 338 337 335 335 336 336 334 334 333 333 332 331 330 329 329 330 330 331 331 331 331 331 331 329 328 329 328 329 330 329 329 328 328 328 329 331 329 327 328 330 330 330 330 331 330 330 330 329 329 329
314 316 317 316 316 316 316 315 314 312 312 317 317 313 312 314 316 317 318 318 318 318 318 319 319 318 319 318 320 321 322 331 333 330 335 339 340 340 340 340 340 341 341 340 339 338 337 337 337 337 336 336 335 335 334 334 333 332 331 331 330 328 328 329 332 332 331 332 331 331 330 329 330 329 329 331 331 329 328 328 328 329 331 329 326 327 329 331 330 330 331 330 329 330 329 328 329
313 316 317 317 316 315 315 314 313 313 314 316 317 315 313 312 315 318 319 318 318 319 318 319 319 318 319 319 319 320 320 327 331 329 331 335 339 340 339 340 340 341 340 339 339 337 336 336 336 337 336 335 334 334 334 334 334 333 332 332 331 328 328 329 332 332 332 332 332 332 331 330 330 330 330 331 332 330 328 328 328 328 331 330 327 328 329 330 330 330 330 330 330 330 327 326 328
315 316 317 316 316 315 315 314 314 315 314 313 314 315 313 312 315 317 318 317 317 318 318 318 319 318 318 318 318 320 319 323 331 333 333 336 339 339 339 340 340 340 340 339 338 337 336 336 335 336 336 335 334 333 333 334 334 333 332 332 331 330 329 330 332 333 332 331 330 330 331 330 330 330 331 330 331 332 329 328 328 327 328 330 329 330 329 329 330 331 331 329 329 330 327 326 328
315 316 316 315 315 315 315 315 313 314 313 312 313 314 313 312 314 316 316 316 317 319 318 318 322 322 321 320 320 320 319 321 331 335 334 335 338 339 338 339 339 339 339 338 339 338 336 335 335 336 336 335 334 334 333 333 333 332 331 331 330 329 331 332 333 332 330 329 328 329 330 330 329 329 330 329 330 331 329 328 328 328 328 328 329 331 331 331 330 330 331 328 327 329 327 327 327
316 316 315 315 315 314 315 315 314 313 313 312 314 315 313 311 313 315 316 318 320 320 318 320 327 327 325 325 323 322 320 325 334 333 330 333 338 339 338 338 339 339 339 338 338 337 336 335 335 335 335 335 334 334 333 332 332 331 330 328 326 328 332 332 332 330 329 330 329 329 329 329 329 328 328 328 328 329 329 328 328 328 329 328 328 331 331 331 331 329 329 327 326 327 326 326 327
316 316 314 313 313 313 314 314 314 313 312 313 314 315 313 311 313 315 317 319 321 321 320 323 328 327 326 326 325 325 323 326 334 334 333 336 338 339 338 338 338 338 339 339 338 337 337 337 335 335 334 334 334 334 333 331 330 329 327 325 324 329 333 332 332 330 329 330 330 330 329 329 330 328 326 325 325 327 328 328 327 328 328 327 328 330 330 330 331 329 328 328 327 326 326 327 327
316 315 313 312 312 313 313 313 313 313 313 313 314 315 314 313 315 317 318 319 321 323 323 323 326 327 327 325 325 326 324 326 334 336 337 338 339 339 338 337 338 338 339 339 338 337 337 337 336 334 334 334 334 334 333 331 330 328 325 325 327 331 333 333 332 330 329 330 329 329 330 331 331 328 327 325 323 323 325 325 326 327 327 326 327 330 330 330 331 330 329 329 329 329 328 329 329
315 314 313 312 311 313 315 314 314 314 314 314 315 316 314 313 317 320 319 321 324 326 326 325 325 327 328 327 327 328 326 328 333 335 337 338 338 338 338 337 336 337 338 339 337 337 337 337 335 333 334 334 334 335 334 332 332 330 325 326 330 331 332 332 330 327 329 331 330 330 330 331 330 328 328 327 323 323 323 323 323 325 326 327 327 328 329 330 330 329 330 330 330 330 329 329 330
315 314 314 312 312 313 314 314 314 315 314 315 316 316 314 314 318 322 321 322 325 324 325 325 325 326 329 328 329 330 328 329 333 335 336 337 337 336 335 335 335 335 336 337 337 337 337 336 334 333 334 334 334 334 335 333 333 332 329 330 332 332 331 332 330 327 330 332 330 330 329 329 329 328 328 326 323 322 321 319 320 322 324 325 327 327 328 329 329 329 331 331 330 331 330 329 330
315 315 314 313 313 314 313 313 315 316 315 315 315 316 316 317 319 321 321 323 324 324 325 325 327 329 331 330 330 330 330 331 334 336 337 337 336 334 332 333 335 335 335 336 336 336 336 335 334 334 333 334 334 333 333 333 332 331 330 331 332 331 330 331 331 330 330 330 329 329 329 329 329 328 326 323 321 321 319 318 320 321 320 322 324 325 326 328 327 328 330 329 329 331 331 330 330
315 315 313 314 315 315 313 313 315 315 315 315 314 315 316 317 319 321 321 323 324 324 326 328 331 331 332 333 332 330 330 331 332 335 337 337 336 335 334 335 335 335 335 336 336 335 336 335 334 333 333 333 333 332 332 332 331 330 330 330 331 330 330 331 331 330 329 328 329 329 328 327 327 324 322 320 319 318 317 319 323 324 321 320 322 324 327 328 326 328 330 328 327 329 330 330 330
314 314 315 315 316 315 314 314 314 315 316 315 313 313 314 314 318 322 323 323 325 326 327 329 332 332 333 334 332 330 330 329 329 332 333 334 335 335 335 335 335 335 335 335 335 335 335 334 333 333 333 333 332 332 332 333 332 330 330 330 330 328 330 331 331 329 327 326 327 327 326 325 323 320 318 316 317 318 317 319 323 324 321 319 320 323 326 328 327 329 329 327 326 326 326 328 329
314 315 316 315 314 314 313 314 314 315 315 315 313 313 314 317 319 322 323 326 328 326 326 328 330 332 333 333 332 331 330 328 329 330 329 331 334 334 335 335 334 334 335 335 335 334 334 334 334 332 331 332 332 332 333 334 332 330 329 330 329 328 329 330 330 328 326 324 325 326 326 323 320 320 317 314 318 321 321 320 321 322 321 319 319 321 323 324 326 327 327 326 325 324 324 327 327
315 315 316 315 314 315 315 314 314 314 314 314 314 313 317 321 323 324 325 328 328 326 327 328 328 331 332 332 332 332 331 330 329 329 329 329 331 334 335 334 334 334 334 335 334 334 334 334 333 332 332 332 331 332 333 334 331 329 328 328 328 328 328 328 328 327 325 325 326 326 324 320 320 321 317 315 320 323 322 323 322 321 322 320 319 321 322 322 323 326 326 325 325 325 326 327 326
314 313 314 314 315 315 316 316 315 316 315 315 314 315 319 323 324 325 327 327 327 327 328 328 328 330 330 330 330 330 331 330 328 328 328 327 328 333 335 334 334 334 334 334 333 334 334 333 332 333 332 332 332 331 332 333 331 329 328 328 329 329 328 328 327 327 326 327 327 326 323 321 322 322 319 318 323 324 323 323 322 320 322 323 322 321 321 322 323 325 326 326 326 327 327 327 326
315 315 313 313 314 314 314 315 314 316 316 315 314 316 321 323 324 325 326 326 328 328 327 327 328 328 328 328 328 328 328 328 327 326 326 327 328 330 333 334 333 333 333 332 332 333 334 333 332 332 332 332 331 331 332 331 330 330 329 328 328 328 328 328 327 326 327 328 327 325 323 324 324 322 321 323 324 323 322 322 322 321 322 323 324 323 322 322 323 324 326 326 326 326 326 325 325
Wind_Speed
4 3 5 6 6 5 10 10 8 5 6 8 8 9 1 3 2 2 3 2 3 3 1 4 4 6 7 7 8 7 9 10 7 3 3 6 9 12 15 18 18 18 18 17 21 20 18 16 14 13 12 13 14 15 17 19 20 21 21 21 20 20 19 18 17 16 14 13 12 12 13 13 12 12 12 12 13 14 14 15 17 16 15 18 20 20 20 19 20 22 23 23 22 21 21 20 20
3 1 5 6 6 7 9 10 7 5 8 7 8 6 4 5 0 4 2 1 2 3 2 5 6 7 7 7 8 5 6 12 10 10 9 10 13 15 17 19 17 17 17 16 20 21 18 17 14 13 12 13 14 16 18 20 20 21 21 21 21 20 19 18 17 16 14 13 12 12 12 12 12 12 11 11 13 14 14 16 16 15 14 16 19 19 19 18 18 21 23 23 22 22 21 20 20
5 5 5 6 8 9 8 7 7 6 7 7 5 2 3 1 2 2 2 4 5 4 4 6 7 5 6 6 4 3 5 10 10 12 12 13 16 18 17 18 18 18 17 17 19 20 19 17 15 13 13 14 15 18 19 20 20 21 21 21 21 20 19 18 17 16 14 13 12 11 11 11 11 11 10 11 13 14 14 16 15 14 13 14 17 17 17 16 16 18 20 21 21 22 22 21 20
9 8 8 8 9 9 7 6 7 7 6 6 2 5 2 1 5 4 3 4 4 6 5 6 5 1 4 3 1 2 7 8 8 9 12 13 16 18 17 18 20 19 18 18 19 19 18 17 16 14 14 14 16 18 19 20 20 20 21 20 20 20 19 18 17 15 14 13 12 11 11 11 11 10 11 11 13 15 15 15 14 13 13 14 16 16 17 17 16 16 18 19 20 21 22 22 20
8 8 9 10 9 5 5 6 6 7 7 6 2 6 3 3 5 3 3 4 5 6 5 7 3 4 1 6 6 2 6 8 7 7 11 14 16 18 18 19 19 19 19 18 18 18 17 17 16 15 14 15 16 17 18 19 19 19 20 20 20 20 19 19 17 15 14 13 12 11 10 10 10 11 11 11 12 14 15 15 14 12 12 13 14 15 15 15 16 16 18 19 20 21 21 22 21
5 7 9 10 10 6 5 6 6 8 7 6 3 5 5 4 5 4 5 5 6 6 5 8 5 5 5 8 9 7 6 6 7 8 12 16 18 18 18 18 18 18 19 18 16 17 18 17 17 15 15 15 16 17 17 18 18 19 19 20 20 21 20 19 17 16 14 14 14 12 11 10 9 11 12 11 12 14 15 15 14 12 12 12 13 13 13 14 15 16 17 18 20 21 21 22 21
6 8 9 9 9 6 7 6 7 6 1 2 5 5 6 4 5 5 5 4 5 5 7 7 5 4 6 7 9 8 5 5 7 9 13 16 18 19 18 17 18 19 19 18 16 17 19 17 17 15 15 15 15 16 17 17 18 18 19 19 20 21 21 19 18 16 15 15 14 13 11 10 9 11 11 10 11 13 15 16 14 12 11 12 12 12 13 14 16 17 18 19 20 20 21 21 21
8 10 9 8 6 5 7 7 7 5 2 2 3 5 5 5 6 6 5 4 3 3 7 6 7 6 5 6 6 6 5 6 8 12 15 17 18 18 18 17 19 20 18 17 17 19 19 17 16 15 15 14 15 16 16 17 17 18 18 18 19 20 20 19 18 17 16 15 14 13 11 10 10 11 12 11 10 12 15 16 14 13 13 13 13 12 13 14 16 18 19 19 20 20 20 20 20
10 11 8 7 6 5 6 7 7 6 2 3 2 4 3 5 5 6 5 5 4 4 7 6 9 7 6 8 8 7 7 8 11 14 16 18 19 19 18 18 19 19 18 16 18 21 19 17 16 15 14 13 14 14 15 16 16 17 17 18 18 19 19 18 17 17 16 15 14 13 12 11 10 9 12 15 14 14 16 17 15 14 14 13 13 12 13 15 17 18 19 19 19 20 20 20 20
11 11 7 5 6 6 6 7 5 3 1 3 2 4 3 4 5 6 6 6 4 5 7 6 9 7 9 9 9 8 9 12 15 15 17 19 20 19 17 18 18 19 19 17 19 22 20 18 16 15 14 13 13 13 13 14 15 16 17 17 18 18 18 18 17 16 15 14 14 13 13 11 8 8 11 16 17 16 17 17 15 14 14 13 13 12 13 16 18 18 18 19 19 19 19 19 19
10 9 7 6 6 7 6 6 5 3 4 3 3 3 4 4 5 6 6 8 4 5 6 6 10 9 10 9 8 9 11 14 16 16 17 19 19 19 18 18 18 19 19 17 21 23 20 19 17 15 14 13 12 12 12 12 14 15 17 17 17 18 18 18 17 16 15 15 15 14 13 10 9 9 10 13 16 16 16 17 16 15 14 14 13 13 14 16 18 17 17 18 18 18 18 18 18
9 7 6 6 6 6 5 4 2 3 4 5 4 4 4 4 5 5 6 7 3 6 9 9 9 11 8 8 9 10 13 14 17 16 17 19 18 18 19 18 18 18 17 16 20 22 21 20 17 16 14 13 12 12 12 12 13 14 16 17 18 18 18 17 16 16 15 15 15 14 12 11 10 11 10 10 13 15 14 16 16 15 15 14 13 14 15 16 16 16 16 16 17 17 17 17 17
10 5 6 6 6 7 5 5 1 0 2 4 5 4 4 3 4 6 7 7 5 7 9 8 6 9 6 8 10 11 15 15 16 17 17 19 18 18 19 18 17 16 17 17 17 20 22 21 18 17 14 13 12 11 11 11 12 13 16 17 18 18 17 16 16 16 16 15 14 14 13 12 12 11 11 9 10 14 15 15 15 15 14 14 14 14 16 16 15 15 15 15 15 15 15 15 15
11 8 7 6 7 8 5 6 3 3 3 6 5 4 5 3 4 6 7 7 6 3 2 5 2 5 5 8 10 11 16 16 16 17 17 17 17 18 19 18 17 16 19 19 16 18 20 20 19 18 15 14 13 12 11 10 11 13 15 17 17 17 16 16 16 16 16 15 15 15 14 13 13 12 12 10 10 12 14 14 14 14 14 15 15 15 16 16 15 14 13 14 13 12 14 14 13
11 9 7 6 7 7 6 6 4 4 3 8 4 4 5 2 3 5 6 6 2 2 1 5 3 3 5 4 8 14 17 18 18 17 18 17 18 18 18 18 18 17 19 19 18 18 17 18 19 18 17 15 13 13 12 11 11 12 14 15 16 16 16 16 15 16 16 16 15 15 15 14 14 13 12 11 11 11 11 11 12 13 14 14 16 16 17 17 15 14 13 13 12 11 12 13 12
10 8 6 6 8 7 5 5 2 3 2 7 4 3 5 2 3 3 2 5 0 2 4 4 4 4 10 8 9 17 19 19 19 18 19 18 19 18 18 18 18 18 19 19 18 18 17 17 18 18 17 15 14 13 12 12 11 12 13 14 15 15 15 16 15 16 16 16 15 15 15 15 15 14 13 12 12 11 10 10 10 12 13 14 15 16 17 17 16 15 13 12 12 11 11 13 12
9 8 7 5 7 6 3 5 2 1 4 7 4 3 5 3 3 2 2 5 2 4 4 3 4 5 9 8 12 20 20 20 19 19 20 19 19 18 18 19 19 19 20 20 18 17 17 17 18 19 17 15 15 13 12 12 12 12 13 14 14 15 15 16 16 16 16 15 15 15 15 15 16 15 14 13 12 12 11 10 10 10 12 14 15 16 16 15 15 14 13 12 11 11 11 11 11
8 7 6 6 6 3 2 2 4 3 3 6 3 4 5 4 3 2 4 5 2 5 6 4 6 7 7 11 16 20 20 20 20 20 21 20 19 19 19 19 20 20 20 21 19 17 17 17 18 19 18 16 15 14 13 13 13 13 13 13 13 14 15 15 15 16 16 16 15 15 16 17 17 17 15 13 12 11 11 11 10 8 9 12 14 15 15 14 13 13 12 11 11 10 10 9 9
10 6 5 8 5 3 5 5 6 5 5 4 4 4 5 4 4 3 4 4 4 7 8 8 8 10 9 14 19 20 21 20 21 21 21 20 19 19 19 19 20 20 19 20 20 18 16 17 18 19 18 17 16 15 14 13 13 13 12 13 13 13 14 14 14 15 15 16 16 16 17 19 19 18 17 15 13 12 11 11 9 7 7 10 12 13 14 13 12 11 11 11 10 10 10 9 7
11 8 7 6 3 4 4 3 3 4 6 5 5 5 6 4 3 5 4 3 7 7 6 7 8 12 12 15 20 21 20 20 21 22 21 19 18 19 18 19 20 19 18 18 19 19 18 18 18 18 18 18 17 15 15 14 13 13 12 13 14 14 15 15 15 17 17 17 17 18 17 17 19 19 18 16 15 14 12 10 7 5 6 7 9 11 12 12 11 10 10 10 9 9 9 8 7
9 8 9 4 6 4 1 2 3 4 6 7 6 5 7 4 3 6 5 4 7 6 7 7 7 12 14 16 21 22 21 20 20 21 21 20 18 17 17 18 18 17 17 17 17 18 19 19 18 19 19 18 18 16 15 15 14 13 13 14 14 14 15 16 17 19 19 19 20 20 18 16 19 19 18 17 16 13 10 8 6 5 6 7 8 9 10 11 11 10 9 9 9 8 8 8 8
8 8 13 9 6 4 1 2 3 4 6 7 6 7 7 5 7 6 5 7 2 5 9 10 10 14 16 18 21 21 22 21 21 21 20 19 18 17 17 17 17 16 17 18 17 18 19 19 19 19 20 20 18 15 14 15 15 14 14 15 14 14 15 15 17 19 19 20 20 20 19 18 18 19 18 17 16 13 9 8 8 7 6 7 7 7 8 9 10 9 9 9 9 8 7 7 7
8 8 12 10 7 7 3 3 5 5 7 8 7 7 7 7 9 4 5 7 3 2 4 6 10 13 15 16 19 19 21 20 21 22 19 19 18 17 16 17 18 18 19 18 17 18 20 21 19 19 20 20 18 16 14 13 14 16 15 15 14 14 15 15 16 16 17 19 18 18 19 19 19 18 17 17 14 13 11 8 8 7 6 6 8 8 8 8 9 9 8 9 9 9 8 8 10
9 8 8 7 7 9 8 7 7 7 8 9 9 9 8 10 8 3 6 7 2 2 3 5 7 11 12 14 17 18 19 20 20 20 19 18 17 17 16 16 18 19 18 17 17 19 21 21 19 20 20 19 18 18 17 14 14 15 15 14 15 15 15 15 15 14 15 17 16 16 18 18 18 17 16 16 14 12 12 10 9 8 7 8 8 9 8 8 11 11 10 11 10 9 10 10 9
12 11 8 6 7 9 9 8 9 9 9 9 10 10 9 11 9 6 9 6 1 2 3 7 9 10 11 13 16 17 18 19 18 18 18 17 16 17 16 15 17 17 17 18 18 17 20 20 19 20 21 20 19 18 19 16 13 13 14 15 16 15 14 15 16 15 16 16 15 16 18 18 18 17 17 16 13 12 13 12 12 11 10 9 8 8 7 8 10 11 11 11 10 9 10 10 8
9 12 11 9 9 9 10 10 10 9 9 9 9 10 10 10 9 8 11 5 2 3 4 8 10 10 11 13 16 17 18 20 19 19 19 17 17 18 17 16 17 17 17 19 18 16 17 19 17 18 19 20 20 19 18 16 14 15 15 16 17 16 15 15 13 14 16 16 15 16 18 18 18 17 16 15 13 12 13 13 12 12 10 9 9 9 9 10 10 10 11 9 9 9 11 11 9
2 9 11 11 11 10 10 10 10 10 10 10 10 10 10 10 8 8 9 5 3 5 6 9 10 10 12 12 16 17 18 19 19 20 19 17 18 19 18 17 17 17 17 17 16 13 13 14 15 16 17 18 18 16 16 17 17 16 13 15 17 16 16 15 13 13 16 16 17 17 17 18 18 15 15 14 14 13 12 12 12 11 11 10 10 9 10 10 9 10 9 9 10 10 11 12 11
5 7 9 10 13 12 12 11 10 10 9 10 11 11 11 10 10 11 7 7 6 7 8 10 10 11 12 12 14 15 16 18 18 19 20 18 18 20 19 17 16 15 16 16 13 11 13 15 14 14 17 18 17 14 15 19 20 15 12 14 16 14 13 14 15 14 16 16 18 18 18 18 18 15 15 15 14 13 12 12 12 11 12 11 10 9 9 9 9 9 8 9 10 11 11 11 12
8 8 10 11 12 13 14 13 11 10 8 7 7 8 11 11 13 17 10 8 8 9 9 10 10 12 11 12 13 14 15 18 18 18 20 19 17 18 18 17 15 14 15 14 13 13 14 16 14 15 17 18 16 14 14 16 18 14 14 15 15 15 13 13 14 15 17 17 17 18 18 17 17 17 16 15 13 13 13 13 12 11 12 12 10 10 11 10 9 8 10 10 11 10 9 11 13
9 9 9 8 10 11 14 14 9 10 7 4 5 7 10 12 18 22 13 11 10 11 10 9 8 11 11 12 13 13 14 17 19 18 20 20 17 16 17 16 14 14 13 13 14 14 15 14 14 16 16 15 14 12 12 14 15 13 13 14 14 15 13 13 13 14 17 18 17 19 19 17 17 17 16 14 13 13 14 13 12 11 11 11 11 11 11 10 8 9 12 12 11 10 9 11 14
8 9 8 7 8 6 11 12 7 8 6 7 9 7 8 10 19 21 13 11 12 13 11 13 9 10 11 13 13 14 13 14 17 17 17 18 16 14 15 15 13 13 12 12 13 12 13 15 15 16 16 15 14 12 12 13 13 13 13 14 13 13 13 13 13 13 16 19 20 20 19 18 17 16 15 13 13 14 14 13 12 11 11 11 11 12 11 9 9 10 10 11 13 12 12 12 13
7 7 7 7 7 3 11 11 8 7 5 9 11 6 8 10 8 16 13 11 13 14 12 16 13 9 10 14 13 14 13 13 16 16 17 17 16 14 14 15 14 14 13 11 11 11 12 15 15 17 16 15 14 12 12 12 12 13 13 14 14 12 12 12 11 11 13 18 22 21 19 18 16 15 14 13 13 14 13 12 12 10 11 11 11 12 11 9 10 10 9 11 14 13 13 13 13
7 7 7 7 8 6 8 10 10 6 2 9 10 7 9 5 6 10 10 11 12 13 15 14 15 13 18 18 14 13 13 14 16 16 17 16 15 15 15 16 15 15 13 11 10 11 12 13 14 16 15 13 12 12 13 13 14 14 14 14 14 13 11 11 10 10 10 15 19 19 18 16 16 14 13 13 13 14 12 11 11 10 11 12 11 11 10 11 11 11 13 13 15 15 14 14 14
7 7 7 7 7 6 4 8 10 8 5 8 9 8 11 4 7 8 9 11 13 14 16 14 15 19 21 17 15 15 14 15 16 16 17 17 16 15 15 15 15 14 13 12 10 10 10 11 12 14 14 12 12 12 13 15 15 15 15 14 14 13 10 9 11 11 11 14 17 17 17 16 16 15 14 13 13 13 12 11 10 10 12 12 12 11 11 13 13 12 14 14 15 16 16 14 15
7 8 7 8 8 7 7 3 8 9 7 7 7 8 12 10 5 6 8 11 15 16 15 16 15 16 15 14 15 16 15 15 15 15 17 17 16 15 15 14 14 13 12 12 11 10 10 10 12 15 15 13 12 13 14 15 16 15 15 14 13 12 11 10 11 12 12 15 17 18 18 16 15 15 14 13 13 13 12 12 10 9 11 12 12 11 11 13 12 12 13 13 13 14 16 16 15
9 7 7 9 8 8 10 4 7 5 6 7 8 8 10 12 12 11 10 11 12 15 16 16 16 13 15 16 15 15 16 15 14 14 16 17 16 16 15 14 13 12 12 12 11 11 11 12 13 15 16 14 13 13 14 16 16 14 14 14 13 12 12 12 11 11 13 15 17 18 18 17 16 15 15 13 12 12 12 11 10 10 10 11 11 11 12 12 11 12 11 12 13 12 14 17 15
8 8 6 8 8 8 9 4 5 2 5 7 9 10 11 11 11 12 11 10 10 14 16 16 16 16 18 19 17 16 16 14 12 14 17 17 17 16 15 14 14 14 14 13 11 11 12 12 14 15 15 14 14 14 14 15 15 14 13 12 12 12 12 11 10 10 13 15 16 16 17 17 15 13 12 12 11 12 13 11 11 12 11 9 10 11 12 12 11 12 10 10 13 12 13 15 14
6 9 7 8 8 10 8 5 5 4 4 8 10 10 12 12 10 12 13 9 10 14 16 17 19 21 20 20 20 17 16 14 12 14 19 18 17 17 15 15 16 16 15 14 12 12 12 12 13 14 13 14 15 14 13 13 13 14 13 11 11 11 10 10 10 10 12 14 14 15 17 16 14 12 11 11 12 12 14 13 13 13 11 9 11 12 12 12 11 11 9 9 10 11 12 14 14
8 9 8 9 8 9 8 7 6 5 4 8 10 10 10 10 10 11 14 12 11 15 18 19 21 22 22 21 21 20 18 17 15 18 21 19 18 17 16 19 18 16 15 14 13 13 12 13 13 13 12 12 13 14 13 12 14 15 13 11 11 10 9 10 11 10 12 14 14 15 18 17 14 12 11 11 11 12 15 15 15 14 11 10 12 11 11 11 11 10 9 9 10 11 12 14 14
9 8 9 10 10 10 9 6 6 6 5 8 10 9 8 9 10 11 15 17 15 17 19 20 22 23 23 23 22 22 19 20 20 21 20 18 18 17 16 18 18 16 15 14 14 14 12 13 14 13 13 11 13 14 13 12 14 15 13 11 10 9 11 11 11 11 14 16 15 16 17 15 13 11 11 12 12 14 16 14 13 12 10 11 11 10 10 10 10 10 10 8 9 10 12 14 13
9 11 11 10 12 13 9 5 4 5 7 9 10 9 9 11 13 13 15 18 17 17 19 20 22 23 25 25 24 23 18 21 23 21 19 17 18 18 17 18 19 17 16 15 15 14 12 13 14 13 14 13 12 13 14 14 15 15 14 12 11 12 13 12 11 12 15 15 15 15 13 13 12 11 12 13 12 13 13 12 13 13 12 12 11 10 10 10 9 9 9 10 9 10 12 14 14
8 11 14 14 14 14 10 9 9 7 7 9 11 10 8 10 16 16 14 15 17 17 18 20 22 24 24 25 25 24 20 20 22 19 18 17 17 18 18 20 20 17 16 16 15 14 13 13 13 13 15 14 12 12 13 15 15 15 14 13 15 14 13 13 11 11 13 12 11 12 11 11 12 12 11 10 9 10 10 13 14 13 13 14 13 11 9 9 9 9 9 10 11 11 12 15 17
8 7 10 13 13 13 12 12 11 8 8 5 5 9 7 8 13 11 9 12 15 16 16 18 22 23 24 25 25 25 24 20 21 18 17 18 19 20 19 19 19 17 17 16 15 15 14 14 14 13 14 15 13 13 14 15 15 15 13 12 15 15 13 13 12 11 12 10 10 10 10 11 11 10 10 10 9 9 9 11 12 11 11 12 13 12 10 9 9 9 9 9 10 12 12 14 17
8 3 2 7 10 12 12 12 10 8 9 5 5 9 8 8 10 8 9 12 12 11 13 16 20 23 23 24 24 25 26 22 21 20 20 21 22 22 18 17 17 17 17 16 15 15 14 14 15 14 14 14 13 14 16 16 15 15 13 12 13 13 10 12 12 11 12 11 10 10 9 9 9 8 9 10 10 8 8 9 10 11 11 10 11 11 11 9 8 8 9 9 8 11 12 12 14
10 3 1 6 9 10 10 9 8 8 9 9 9 11 8 8 9 11 12 11 10 11 13 15 17 20 21 23 24 23 25 24 21 25 25 24 22 20 18 16 17 17 17 16 15 14 14 14 15 15 14 12 12 15 16 17 16 15 15 13 13 13 10 11 12 12 12 11 10 8 8 7 7 8 8 8 8 8 8 8 8 9 9 9 9 9 9 8 8 8 9 10 10 10 11 11 13
9 4 3 7 7 8 9 8 8 9 9 10 11 10 8 8 7 9 11 9 10 11 13 13 9 9 11 16 18 16 21 21 19 23 21 19 18 18 18 16 16 17 16 16 15 15 15 14 14 15 13 12 14 16 16 17 17 17 17 16 15 14 12 12 13 12 11 9 8 8 8 7 7 7 7 6 7 7 6 6 6 7 7 9 9 8 8 8 10 11 10 11 13 11 10 11 12
7 4 6 8 8 9 9 7 7 8 9 11 14 14 11 9 7 7 7 4 6 8 11 8 2 3 6 8 8 9 14 11 15 19 17 19 19 18 18 17 17 18 17 16 16 16 15 15 15 16 16 16 18 17 17 18 18 18 19 18 16 15 14 14 13 11 10 9 9 9 8 7 7 7 6 5 6 6 5 5 6 6 7 8 8 8 9 9 10 12 11 11 13 12 11 11 11
8 5 7 8 8 8 7 7 7 8 9 10 13 14 14 10 6 7 6 2 4 7 8 3 3 1 4 7 9 10 13 8 9 17 18 20 20 18 18 19 21 23 21 19 17 17 16 16 16 16 17 19 21 20 19 20 19 19 19 18 17 15 15 15 12 11 12 10 10 9 8 7 7 6 6 6 5 5 4 4 4 5 6 6 7 8 8 8 9 10 9 9 10 11 11 10 10
9 8 8 8 7 7 7 7 7 8 9 10 10 9 10 8 7 9 9 2 2 2 2 4 6 8 6 4 7 13 17 13 10 14 15 18 19 17 18 19 22 24 22 20 19 19 18 16 16 17 17 19 21 22 22 21 20 20 20 18 17 16 15 14 13 12 11 10 9 9 8 7 7 6 6 6 6 5 4 4 4 5 5 5 6 7 7 8 8 8 7 7 8 9 10 9 8
10 9 8 8 7 7 7 7 7 8 9 9 9 6 7 8 5 4 4 3 5 7 8 7 8 9 9 8 10 14 19 16 12 13 14 17 17 17 17 16 20 23 21 18 18 20 19 17 17 17 18 19 21 23 22 22 21 21 21 19 18 16 14 13 12 12 11 10 10 9 8 7 6 5 4 5 6 6 5 5 5 5 5 5 6 7 7 8 9 8 7 7 8 8 9 9 7
10 9 9 9 7 7 7 6 6 6 6 7 7 5 7 6 1 3 2 5 9 9 9 7 6 9 10 11 11 12 14 12 12 14 17 18 17 16 16 15 19 23 21 18 17 18 18 17 17 18 19 19 20 23 22 21 21 21 21 20 18 16 14 13 12 12 11 11 10 9 8 7 5 5 5 5 6 6 6 6 5 4 4 4 5 7 7 8 10 9 7 9 9 7 8 9 7
8 9 9 9 8 7 6 7 6 4 5 5 5 5 6 4 2 4 5 7 8 5 6 6 5 9 10 7 5 5 7 8 11 14 18 19 17 15 15 15 19 21 20 18 17 18 17 17 17 18 19 18 20 23 23 21 21 21 20 19 17 16 15 14 13 13 12 12 11 10 9 8 7 6 6 5 5 6 6 6 4 4 5 5 5 6 6 7 8 7 7 9 9 7 7 7 6
5 8 9 9 8 7 6 7 6 4 5 7 5 6 6 5 5 3 6 8 6 3 2 5 4 4 5 4 8 6 1 5 8 12 17 18 16 15 15 16 19 21 20 19 17 18 17 16 18 19 19 19 21 22 22 21 21 21 20 18 18 17 16 14 14 14 14 13 12 11 10 9 8 7 5 3 4 4 6 6 4 5 6 5 4 5 5 5 5 5 6 7 9 9 8 7 6
6 5 6 7 8 8 6 6 6 6 7 7 7 9 8 5 2 2 5 5 4 4 4 4 4 6 7 10 11 7 2 4 7 8 13 16 15 15 15 16 18 19 20 18 16 16 16 16 18 20 20 21 22 22 21 20 20 21 20 18 18 18 17 15 14 15 14 14 13 11 11 9 8 6 3 3 3 3 5 7 6 7 7 6 5 5 5 5 4 4 6 6 8 10 9 8 8
12 7 4 5 7 7 6 6 6 7 8 7 8 11 6 2 1 2 2 3 4 3 3 4 5 7 9 12 11 8 5 1 3 6 10 13 14 15 15 14 15 17 18 16 15 15 16 16 18 20 21 21 22 21 20 19 20 22 21 19 18 18 17 15 15 15 14 13 12 11 11 9 7 5 4 4 5 4 4 5 6 7 6 6 6 6 6 6 5 5 6 7 8 9 9 9 8
13 11 7 6 6 5 5 5 5 7 8 6 8 9 2 4 2 1 3 3 3 2 2 4 4 6 10 12 11 10 9 7 2 4 10 13 12 13 14 14 15 17 17 17 16 14 15 16 17 20 21 21 22 22 20 20 21 23 22 20 19 18 17 15 15 16 15 13 12 11 10 9 8 6 5 5 5 5 4 4 4 5 5 6 6 6 6 6 5 5 6 6 8 9 10 9 7
10 10 8 8 6 6 5 4 4 5 6 6 7 7 2 4 2 3 5 5 4 3 3 4 4 7 10 12 12 12 11 11 9 4 6 11 11 9 12 13 16 18 17 17 18 17 17 17 19 20 21 21 23 23 22 23 23 23 23 21 20 19 17 17 17 16 15 13 12 11 10 9 8 7 5 5 5 5 4 4 4 4 4 4 5 6 7 6 5 5 4 5 7 7 7 6 5
8 8 9 10 8 8 7 6 7 7 6 7 8 5 2 3 2 4 6 6 6 5 5 5 6 8 9 11 12 13 12 12 13 11 6 4 7 8 11 10 13 18 20 20 22 21 20 20 21 21 21 23 24 23 23 23 23 24 24 23 22 21 19 18 18 17 15 14 13 11 10 9 8 7 7 6 5 5 5 4 4 4 5 5 4 5 7 6 5 5 4 4 5 4 4 4 4
Wind_Direction
141 133 142 156 155 211 227 222 241 209 232 255 248 257 172 93 10 279 191 181 233 143 27 315 299 293 278 290 314 336 20 19 7 11 84 119 150 140 136 138 136 140 141 152 162 161 158 155 153 153 157 162 166 168 169 168 168 169 170 172 172 172 169 166 163 162 160 156 150 144 142 143 152 156 158 161 156 152 146 136 132 127 124 123 123 121 114 110 107 103 99 96 92 90 90 93 97
126 179 152 163 187 232 229 210 250 230 218 249 241 240 89 93 199 236 195 55 354 54 337 290 280 275 275 294 293 273 51 49 58 82 104 133 138 135 141 142 140 139 143 151 156 158 156 152 151 153 157 161 166 168 169 169 169 170 171 172 173 173 171 168 166 164 162 159 155 152 148 148 154 156 158 162 149 142 140 135 133 128 129 128 126 126 118 114 110 105 102 99 96 92 90 90 95
172 218 179 192 213 235 249 212 246 255 232 258 239 112 63 264 77 70 23 9 354 329 295 283 267 251 237 234 235 222 78 59 67 93 120 140 137 140 146 142 145 145 146 148 152 158 154 148 149 152 156 161 166 169 171 171 171 171 171 173 173 173 172 170 169 167 165 162 161 158 155 155 155 157 159 158 149 143 141 136 134 132 133 128 126 128 122 119 115 108 103 101 98 96 94 91 92
175 200 201 221 220 219 244 223 239 263 255 265 271 77 41 323 57 42 339 332 311 280 279 274 258 195 245 231 104 105 83 68 71 103 130 146 146 145 146 141 143 146 147 147 152 158 152 145 148 152 156 161 166 170 173 173 174 172 172 173 174 175 173 172 172 170 168 165 165 163 162 163 160 160 158 155 154 148 142 137 133 131 130 124 122 123 121 119 117 111 105 101 100 99 97 95 93
168 203 210 227 237 236 248 236 240 256 258 275 333 84 68 27 36 358 301 291 264 255 260 260 239 139 197 30 25 68 84 84 97 117 131 142 146 143 144 139 139 145 148 148 154 158 149 143 148 154 157 160 165 169 173 175 175 174 173 174 175 175 175 175 175 174 171 167 166 166 167 169 164 159 154 152 153 147 141 137 132 128 128 124 119 120 122 119 116 113 107 105 103 101 100 99 96
171 219 213 232 256 286 268 240 236 242 252 279 316 73 69 31 8 326 290 273 247 251 244 247 246 163 134 62 45 56 80 104 118 131 135 141 143 141 141 139 141 145 149 150 156 157 146 144 150 155 157 159 164 168 172 175 176 176 175 176 177 177 178 179 178 176 172 169 167 169 171 172 164 160 158 152 153 150 142 137 134 134 134 128 122 122 125 124 120 115 111 108 105 104 103 102 100
203 213 200 229 246 251 251 244 248 247 209 293 298 17 46 23 343 300 292 268 218 213 221 234 236 171 130 114 77 71 95 108 127 143 141 145 142 139 140 142 144 145 148 150 156 156 147 146 152 154 154 156 161 165 171 175 178 179 177 178 179 179 181 182 179 176 175 171 169 169 172 176 167 165 163 155 155 153 144 139 140 144 146 139 133 133 132 129 125 120 117 113 109 106 105 105 104
224 226 208 230 232 212 242 250 252 255 92 70 307 10 17 342 327 293 293 271 234 193 209 216 214 206 148 137 85 93 122 105 133 139 138 144 143 143 143 145 147 147 147 148 157 157 148 149 152 151 150 151 156 162 169 175 179 179 178 179 180 182 184 183 180 178 177 171 170 172 176 180 171 171 166 153 153 156 150 145 148 156 158 149 141 140 136 134 131 126 121 117 111 108 106 106 106
220 233 223 235 247 222 239 250 246 250 215 78 59 63 1 314 319 287 279 258 258 235 216 205 209 206 134 119 92 112 128 121 136 138 141 144 146 147 145 148 149 150 146 146 157 156 150 152 151 147 147 147 150 156 164 172 177 180 181 180 181 183 185 183 180 180 180 175 174 172 175 177 170 180 172 158 162 171 162 153 159 165 159 148 143 143 141 140 133 127 124 119 114 111 109 108 108
212 226 239 243 253 244 237 241 232 231 152 90 77 63 353 316 307 276 276 267 251 239 223 204 211 187 131 121 108 120 128 133 140 141 145 147 148 147 147 150 149 150 148 151 156 156 155 152 150 146 143 143 145 148 154 163 172 179 182 182 183 184 184 182 181 181 181 176 174 170 172 178 172 179 180 172 176 181 169 160 166 164 155 151 151 151 146 141 135 131 128 122 117 115 112 111 109
215 217 247 255 245 249 242 238 209 153 110 144 131 60 338 323 302 281 278 271 244 241 218 199 215 175 132 119 113 125 133 143 145 144 147 149 149 147 149 150 150 150 154 162 158 158 157 151 150 146 142 142 141 142 144 153 165 176 182 183 183 183 183 182 182 181 180 174 171 172 174 178 169 161 171 181 187 189 178 168 168 164 162 162 161 156 148 144 140 136 131 125 121 118 114 112 111
232 210 226 247 247 247 252 271 236 113 123 179 133 62 327 310 302 298 287 270 226 239 213 201 209 169 149 130 127 139 145 149 146 146 149 149 149 149 150 150 153 153 158 163 157 161 159 153 153 148 146 145 142 142 141 147 158 169 178 181 181 182 182 182 181 179 179 177 172 173 171 168 164 158 158 173 190 195 189 177 170 170 171 169 168 162 153 148 145 141 135 128 123 121 117 113 113
238 239 232 244 258 260 275 286 257 23 226 166 106 48 321 306 317 311 294 270 222 237 205 193 197 163 148 120 133 149 151 153 149 150 150 150 151 150 150 150 154 155 157 156 158 166 162 156 155 152 152 151 148 145 143 145 153 163 170 174 176 179 181 179 178 178 177 176 170 165 165 165 164 165 161 162 180 188 191 188 181 177 175 173 173 168 158 150 147 145 139 131 125 124 119 114 115
238 260 265 257 261 266 273 269 241 243 219 120 89 7 316 320 337 310 291 258 211 245 145 138 161 140 102 104 141 161 157 158 153 150 151 151 151 151 151 152 155 157 158 157 163 166 162 161 158 157 157 157 155 150 149 148 153 161 166 171 173 174 177 177 176 178 177 175 171 164 165 166 166 170 170 166 167 174 182 190 192 186 179 175 174 169 158 151 147 145 142 135 129 128 122 117 117
248 265 273 263 264 260 235 245 276 258 164 104 85 357 306 325 352 302 297 276 186 54 40 133 142 145 161 166 170 169 162 160 154 150 152 152 151 151 152 155 157 158 161 162 165 165 164 165 163 162 161 164 163 158 159 153 155 161 167 171 174 175 175 177 178 179 179 175 174 169 165 165 169 173 174 175 171 171 175 183 194 194 186 176 173 169 159 152 149 146 145 140 134 133 126 119 120
250 268 265 249 257 255 212 207 253 260 113 85 66 21 292 331 13 318 317 279 226 155 228 161 119 147 184 192 170 168 163 159 157 152 151 151 151 152 156 163 162 160 165 167 168 171 168 169 168 167 166 171 171 169 168 161 160 163 170 174 177 181 180 181 180 182 182 176 176 171 165 165 172 174 174 181 181 180 185 187 193 198 194 184 175 169 163 156 152 149 146 141 138 140 132 123 124
239 256 254 246 247 249 197 175 174 274 89 75 43 16 304 337 21 1 145 229 227 169 193 138 99 120 165 160 163 172 164 161 161 156 154 154 154 157 163 166 165 165 170 171 173 177 176 176 174 172 173 177 178 179 177 170 166 165 171 175 179 184 185 185 182 183 183 179 178 170 166 170 175 176 174 182 188 190 199 199 194 200 200 195 186 170 164 162 157 152 146 144 144 142 136 129 128
230 236 240 242 239 259 5 83 48 357 45 48 2 3 325 323 357 1 179 194 146 174 178 139 111 101 132 136 155 168 163 165 164 162 160 159 161 164 168 168 169 170 172 174 176 180 182 183 179 178 179 179 183 184 183 181 171 167 171 172 176 182 184 183 181 182 185 185 182 173 174 179 179 176 174 181 189 191 200 201 193 199 202 201 198 179 168 169 165 156 147 148 145 140 137 133 133
230 236 237 242 244 36 23 12 27 350 348 360 312 346 322 311 360 310 236 185 182 203 174 150 127 109 125 137 152 162 161 168 168 168 165 165 168 168 171 171 173 173 173 177 179 184 182 183 182 183 184 182 186 188 189 190 177 172 173 172 173 178 180 178 177 179 186 189 183 181 183 183 182 177 174 176 181 182 189 198 196 199 204 198 200 190 178 176 173 164 156 152 145 143 143 142 141
229 240 239 244 317 19 41 3 3 340 331 316 313 339 291 299 356 284 280 203 198 206 157 158 153 132 136 144 157 162 163 171 172 171 168 171 173 173 176 172 175 177 176 177 182 186 182 184 186 182 187 187 186 188 191 191 183 177 175 175 175 178 179 175 177 179 182 184 181 186 186 180 183 179 173 172 175 178 183 194 197 200 197 184 190 193 184 181 178 175 170 159 153 156 159 162 158
224 232 245 278 1 326 107 32 337 326 312 303 311 295 278 315 306 269 288 253 200 181 159 169 179 156 152 157 162 165 169 174 175 175 172 174 175 175 179 175 178 178 177 180 184 187 182 187 187 181 189 193 190 189 191 187 181 178 176 178 178 182 182 177 184 185 182 181 181 188 188 181 184 180 171 172 175 175 183 187 183 192 184 164 170 181 181 182 185 189 186 172 168 178 182 173 166
240 236 256 286 332 286 98 44 307 319 299 287 283 277 303 320 275 272 279 279 235 175 169 160 178 168 161 167 170 170 173 175 178 179 177 177 176 178 181 178 177 176 181 184 184 186 185 191 188 183 192 198 196 193 188 184 179 175 177 181 178 180 183 185 191 190 188 185 182 185 189 184 184 180 171 173 175 166 173 178 174 182 175 159 158 168 180 182 188 197 196 189 183 188 200 182 175
248 240 250 263 270 271 306 308 283 301 284 278 282 289 311 286 269 284 263 286 348 214 192 162 176 165 162 171 174 175 176 180 182 180 181 182 179 183 185 180 180 182 186 186 187 192 191 193 189 188 196 196 196 196 187 187 187 180 181 187 185 185 188 192 191 189 197 196 187 184 187 184 180 176 170 170 172 162 162 169 178 180 170 167 162 171 185 177 180 191 197 201 193 191 214 212 187
242 254 249 244 253 266 278 281 275 280 275 279 286 284 284 266 274 305 257 275 319 239 226 197 171 151 162 174 178 182 181 183 184 181 182 186 185 187 188 186 187 186 187 185 189 198 196 193 189 192 201 197 195 198 193 196 198 187 185 193 195 194 195 197 194 193 205 203 191 181 182 182 173 168 168 169 167 161 160 164 175 172 168 178 173 173 177 173 176 184 197 204 199 192 207 224 197
231 251 258 248 250 259 265 266 263 267 270 271 269 268 266 260 279 290 258 256 208 226 217 190 162 153 172 178 183 186 185 184 184 184 186 190 192 191 190 189 190 188 191 192 192 196 194 189 188 195 202 199 199 204 201 199 200 192 191 197 197 196 199 202 200 202 208 204 193 181 181 179 167 165 170 171 169 169 170 173 177 174 173 178 174 164 168 181 176 178 202 207 199 194 197 216 202
219 240 251 251 251 255 258 257 258 261 261 263 262 259 256 256 272 262 241 228 164 206 214 177 156 166 182 181 186 188 190 189 185 189 190 191 194 192 191 191 193 194 197 200 198 192 188 186 191 198 201 201 207 211 206 203 206 199 201 209 203 196 203 207 202 203 206 205 200 189 183 180 171 166 165 169 176 180 182 184 183 183 183 181 176 169 179 188 178 184 203 199 192 204 205 205 191
246 248 257 259 261 262 258 258 258 261 259 255 257 257 252 250 257 240 211 178 192 209 191 169 160 177 186 186 189 189 193 192 189 191 190 191 196 195 193 194 197 199 200 203 201 190 187 191 194 200 205 207 206 209 211 214 212 196 194 212 206 198 204 205 197 201 205 200 195 187 176 175 175 164 159 173 183 182 184 186 184 184 183 184 185 183 189 188 185 193 190 181 190 207 209 201 189
279 265 266 258 259 257 248 250 247 250 252 244 252 259 253 244 243 242 201 162 205 217 189 170 172 181 185 191 187 188 194 195 194 194 195 195 198 198 195 196 199 202 204 204 200 191 195 197 198 209 217 214 201 204 222 222 216 202 198 211 209 207 204 195 187 190 198 190 185 183 172 172 177 173 170 176 178 177 181 183 182 180 178 180 183 186 189 184 183 188 181 185 194 202 208 198 184
260 256 264 255 248 245 235 233 232 239 240 233 251 260 245 229 231 238 210 178 209 218 197 170 183 186 182 192 183 188 197 196 199 198 200 199 197 199 197 199 200 206 207 203 199 192 200 199 200 223 230 221 202 204 228 229 223 219 216 217 216 219 209 196 191 183 187 189 187 185 180 178 179 180 177 171 169 174 177 176 176 178 179 178 178 180 180 176 180 186 188 192 191 195 206 192 179
249 242 255 259 247 239 222 214 216 236 234 211 243 254 238 213 219 228 202 183 206 221 203 158 188 193 181 197 182 185 197 196 202 201 203 202 199 200 199 201 202 209 207 204 203 191 205 211 210 229 231 221 209 209 231 234 227 225 224 222 217 218 212 205 203 183 178 185 185 181 179 176 174 177 175 168 170 174 175 174 176 181 184 181 177 175 172 171 181 189 185 186 186 185 198 193 182
243 239 233 241 258 233 182 182 195 220 189 182 229 252 254 227 208 205 187 189 204 227 206 151 188 202 184 203 186 186 197 195 201 201 203 202 200 200 199 202 203 212 209 206 204 185 206 221 218 230 226 216 218 219 228 229 224 226 229 226 219 216 210 208 207 185 173 176 178 175 175 174 174 177 175 173 175 178 177 175 180 185 185 183 180 174 168 175 185 185 180 185 187 182 194 199 184
225 239 229 220 242 189 146 162 199 220 152 178 222 237 255 262 197 165 168 202 207 228 216 160 177 206 203 208 190 189 195 195 201 198 202 202 199 201 200 204 206 211 211 205 200 181 198 212 213 227 222 211 216 213 215 222 222 224 226 223 221 216 209 214 214 193 178 174 174 176 177 174 175 175 174 177 180 181 178 176 180 183 186 187 188 179 168 181 189 183 188 192 189 183 190 197 186
211 227 245 224 216 204 157 164 194 222 169 184 213 245 250 250 110 144 180 209 207 226 233 184 168 197 215 206 187 193 192 192 202 198 202 201 198 203 201 204 206 208 209 206 197 181 190 202 211 224 220 209 211 208 209 218 219 218 223 222 221 220 214 221 221 210 198 181 176 181 181 175 175 177 177 179 184 185 180 180 181 180 190 191 191 184 175 191 191 189 201 194 187 188 190 195 188
206 209 245 248 232 238 186 156 167 187 215 209 208 242 257 226 126 158 191 213 215 220 235 218 186 197 211 198 180 193 195 196 201 200 204 199 198 205 202 202 205 205 204 206 198 181 186 199 209 217 215 208 207 207 212 219 221 219 220 219 221 223 216 219 218 217 214 194 185 185 184 181 179 183 185 183 184 187 185 189 189 187 196 197 195 187 188 202 198 197 206 191 185 191 188 191 188
228 212 223 240 236 249 249 179 148 171 211 231 214 222 249 257 231 198 194 211 222 218 226 235 222 214 218 208 192 190 194 201 201 199 200 200 202 204 203 203 206 207 204 206 199 186 192 196 204 212 211 209 206 208 214 219 221 219 218 215 219 221 213 216 222 225 223 207 193 187 186 189 188 187 188 186 186 191 195 194 196 201 202 201 198 191 197 207 201 201 204 187 186 193 188 192 192
276 257 227 237 234 231 238 190 125 166 228 235 236 238 244 249 249 244 221 201 219 224 220 230 236 231 230 226 211 194 194 199 200 201 200 201 204 204 206 206 203 205 204 208 201 190 195 191 197 213 213 209 208 208 213 218 218 216 217 216 215 216 216 222 231 232 219 204 195 190 190 193 195 192 184 185 192 199 205 203 206 209 202 203 199 195 206 208 204 209 203 181 179 186 190 195 193
301 285 256 253 256 250 244 188 136 199 254 247 245 247 253 253 251 255 238 193 207 231 222 223 233 234 232 231 222 205 196 196 197 207 208 204 204 204 204 201 200 203 202 206 203 191 196 193 193 209 219 215 205 200 204 212 215 213 210 212 215 216 219 221 224 222 203 194 193 189 190 193 197 198 185 186 197 202 210 215 224 216 195 201 206 200 207 209 212 214 202 182 179 184 189 192 189
271 267 268 257 252 257 250 174 161 200 232 254 252 246 250 248 245 256 251 213 201 229 229 221 226 232 233 233 228 213 197 192 197 211 213 205 201 204 207 207 207 207 206 205 201 194 197 202 197 201 217 216 202 194 197 202 206 210 208 209 215 216 216 211 202 195 186 189 194 190 193 195 195 198 195 198 204 208 215 215 223 220 195 200 218 214 213 215 217 213 198 187 186 192 192 190 187
251 253 259 258 252 256 239 172 174 211 227 253 255 252 252 248 243 247 252 239 214 223 231 225 224 230 233 233 231 221 199 184 198 215 212 204 200 204 212 218 214 203 204 202 195 197 196 200 203 197 204 209 200 195 198 201 199 202 208 208 210 207 202 200 192 178 168 176 188 194 199 199 195 198 202 209 212 215 220 214 215 216 201 208 224 223 220 221 221 212 199 191 191 193 187 185 186
244 245 246 248 245 253 248 194 178 201 230 264 273 269 263 261 254 245 247 248 233 222 227 229 227 227 231 235 235 230 204 178 194 209 204 204 207 205 206 212 209 195 195 195 190 195 191 194 202 195 194 200 201 195 190 199 199 196 202 204 200 189 178 180 181 173 166 169 178 187 196 197 193 201 210 213 215 215 214 208 208 210 205 216 224 221 221 223 223 214 200 194 197 193 184 183 181
228 235 246 251 247 250 251 239 229 223 233 247 261 268 259 250 246 243 239 237 235 228 225 226 228 227 228 232 236 238 218 182 190 201 197 207 215 211 207 206 204 193 189 190 188 191 189 194 203 195 190 194 198 192 183 193 198 194 198 193 181 178 174 171 169 167 171 176 179 185 191 191 190 201 208 207 209 213 212 205 207 208 207 215 216 215 222 222 221 216 201 196 198 188 184 186 177
229 221 234 248 256 262 266 272 273 266 253 238 238 249 252 245 242 239 233 227 221 221 227 225 225 227 226 228 230 236 228 190 185 197 197 209 221 216 210 207 204 193 190 191 186 187 188 195 205 198 192 192 190 185 181 191 194 191 198 190 179 182 180 169 164 168 175 179 184 186 181 180 188 195 194 199 212 216 213 212 212 208 208 216 214 210 216 216 218 216 205 202 200 190 188 190 184
245 218 225 237 252 266 269 269 267 262 268 261 240 255 264 261 253 238 232 245 229 211 221 229 227 228 227 228 226 229 232 203 183 196 203 210 220 216 210 209 203 192 191 190 182 185 190 196 202 200 198 196 189 185 184 187 188 189 195 190 184 190 185 171 170 178 179 178 186 184 176 177 187 192 182 186 211 216 210 212 211 202 206 219 216 206 205 209 215 210 205 212 207 198 198 196 189
243 206 211 240 245 255 255 255 257 260 269 261 225 248 264 269 270 255 228 245 250 224 222 230 230 232 229 229 228 225 231 216 184 190 211 217 215 210 210 206 198 192 189 185 184 187 190 195 200 202 207 207 198 193 191 188 187 187 187 185 184 186 181 176 179 181 177 180 189 183 179 180 179 185 180 182 199 207 206 208 207 202 202 214 214 205 204 205 210 209 202 208 210 198 198 203 197
247 220 178 258 257 257 255 252 251 252 259 257 236 235 250 258 264 268 248 231 238 241 243 241 231 233 233 233 232 224 230 228 190 179 198 208 209 208 207 202 194 190 185 183 184 185 188 194 199 202 206 207 195 191 195 192 185 180 178 177 177 175 174 181 185 183 183 189 193 179 174 176 170 175 182 187 192 196 204 205 207 207 202 208 207 203 212 211 211 219 209 210 217 197 189 203 205
256 265 224 246 262 260 256 254 257 252 247 254 253 245 253 262 255 261 263 244 234 237 242 242 231 244 254 245 240 231 236 230 181 170 189 196 202 206 200 198 193 185 181 182 182 183 190 196 197 196 197 195 187 187 194 192 180 174 175 172 171 171 175 185 187 186 187 189 183 172 170 171 169 171 177 186 186 191 206 206 207 211 206 206 198 194 214 217 217 222 215 219 225 207 193 200 199
243 267 238 234 236 239 243 245 255 260 247 244 251 250 251 260 259 255 259 253 259 255 239 230 115 28 320 308 292 265 256 235 166 173 194 192 196 197 192 194 191 183 179 180 181 182 189 197 196 192 191 192 188 185 189 187 178 174 176 174 171 173 179 184 185 180 177 175 171 169 168 167 167 169 174 182 184 187 202 208 208 212 212 208 197 197 208 211 221 226 219 222 223 214 209 202 190
226 234 238 235 224 224 233 232 232 247 252 247 247 249 249 250 254 266 272 214 228 253 252 273 36 283 285 331 327 296 278 266 180 179 180 175 181 182 186 194 190 185 179 175 178 179 184 192 193 189 190 193 188 182 184 185 180 177 178 177 174 179 183 179 175 172 170 168 166 166 164 163 165 169 173 180 184 183 194 212 213 213 222 218 208 211 209 203 218 225 222 220 214 211 214 201 186
223 223 230 236 227 219 228 232 228 232 243 252 257 252 249 255 254 261 275 278 204 246 312 326 318 298 293 299 290 274 261 246 192 174 168 168 176 177 183 192 194 189 180 174 174 175 179 186 187 187 190 192 183 177 180 182 180 179 180 180 181 185 182 172 168 167 163 160 162 164 160 156 162 170 174 180 184 185 194 210 213 214 225 224 216 214 205 204 217 223 224 219 208 211 213 199 178
214 217 222 229 227 224 231 236 239 239 238 241 247 249 252 263 267 255 274 4 36 22 360 329 313 309 295 254 233 228 231 225 187 173 177 177 181 180 176 187 201 198 185 179 176 174 177 182 183 185 192 194 179 171 176 179 178 181 182 182 184 185 175 165 168 165 156 154 159 158 151 150 156 159 166 178 183 188 198 206 213 217 219 216 220 220 208 208 217 217 217 217 214 218 217 211 200
211 222 229 233 238 238 239 244 250 257 259 233 213 227 255 259 217 110 95 53 49 24 338 318 326 313 278 240 221 203 203 208 189 179 184 186 187 187 184 192 207 204 191 183 180 176 177 179 178 180 192 192 174 169 175 177 179 182 183 183 182 181 171 162 165 165 157 152 153 148 143 144 145 148 167 186 187 193 204 209 213 219 224 219 224 230 224 221 220 211 210 214 212 216 222 219 216
208 215 230 235 240 245 254 277 290 294 291 266 217 222 251 271 281 191 158 90 67 31 321 317 351 326 285 230 174 166 188 200 191 184 185 186 187 189 190 195 201 200 192 185 184 183 179 174 171 178 189 187 175 174 175 177 181 181 181 182 178 174 169 161 159 161 157 151 148 145 143 144 153 167 183 190 182 190 204 208 215 231 236 229 229 232 230 235 230 213 213 218 208 205 218 218 212
215 211 226 230 235 244 250 261 262 249 261 265 251 243 243 259 281 226 140 113 116 128 359 336 360 358 323 26 69 78 222 253 226 199 187 185 187 186 184 191 197 195 191 186 185 186 182 172 170 177 184 183 180 179 177 179 181 180 181 181 176 172 167 161 158 159 159 153 149 151 155 158 170 182 190 191 180 186 194 188 194 233 236 226 229 228 216 231 236 216 220 224 211 203 205 206 204
239 227 231 228 232 243 253 255 242 234 248 251 245 249 249 243 257 45 68 78 92 99 68 360 3 40 41 45 54 64 41 288 256 203 186 192 196 187 180 190 197 192 187 184 180 184 185 176 172 178 182 182 183 183 181 181 180 180 180 177 175 172 165 161 161 163 164 161 157 158 162 164 172 180 183 193 191 178 183 182 185 212 223 217 226 228 209 218 226 216 220 216 213 212 204 203 207
237 249 251 241 240 232 227 239 240 237 244 245 241 244 257 304 2 55 57 75 74 72 66 40 28 31 41 51 51 52 65 56 230 186 192 207 205 191 182 186 190 184 182 180 177 182 188 181 175 178 182 184 185 185 182 182 183 181 179 176 175 170 165 163 160 160 163 164 161 157 158 162 163 164 171 178 176 163 170 186 193 203 207 208 225 233 225 226 223 222 225 211 211 217 208 207 211
231 245 241 238 260 256 231 232 245 251 250 248 249 245 225 51 3 34 79 80 70 85 69 41 38 36 37 44 45 42 54 60 59 215 223 231 226 202 181 175 180 180 178 176 175 179 187 185 177 177 182 185 188 189 185 185 185 180 176 175 172 167 166 166 161 159 160 160 158 154 156 161 150 149 166 166 157 159 168 180 194 203 205 212 227 231 232 237 229 231 236 213 206 210 203 201 205
212 229 231 224 232 245 246 233 222 245 258 255 254 249 126 70 2 26 58 54 49 87 102 61 41 37 33 36 37 35 41 45 35 359 259 248 243 206 171 172 182 182 181 181 179 179 183 186 180 179 183 185 188 191 189 188 183 178 176 172 168 164 163 163 162 161 160 157 155 155 156 153 147 150 156 149 146 157 165 172 186 196 204 220 234 233 231 237 231 232 237 215 211 215 202 190 193
218 216 225 226 225 234 241 230 210 221 246 252 253 243 105 57 354 48 52 43 53 74 87 73 47 32 32 35 33 32 33 36 38 36 21 285 249 198 170 175 185 187 189 188 184 180 182 187 183 181 185 187 191 194 192 188 182 177 175 171 168 167 162 162 165 164 161 158 157 160 158 149 151 153 141 143 164 171 162 162 174 188 199 206 218 230 230 227 224 221 219 215 217 217 201 186 194